FW5769 Weather Reports


time (UTC)temp
C
wind
direction
speed
KPH
gust
KPH
rain 1hr
cm
rain 24hr
cm
rain mn
cm
humidity
%
barometer
mb
20260906071540 23 326 0.0 0.0 0.00 1.04 0.00 88 1008.7
20260906070039 23 326 0.0 0.0 0.00 1.04 0.00 88 1008.8
20260906064539 23 326 0.0 0.0 0.00 1.04 0.00 90 1009.1
20260906063035 23 326 0.0 0.0 0.00 1.04 0.00 90 1009.3
20260906061535 23 326 0.0 0.0 0.00 1.04 0.00 90 1009.3
20260906060041 23 326 0.0 0.0 0.00 1.04 0.00 90 1009.5
20260906054531 23 326 0.0 0.0 0.00 1.04 0.00 90 1009.6
20260906053032 23 326 0.0 0.0 0.00 1.04 0.00 89 1009.9
20260906051527 24 326 0.0 0.0 0.00 1.04 0.00 88 1010.0
20260906050027 24 326 0.0 0.0 0.00 1.04 0.00 87 1010.1
20260906044527 24 326 0.0 0.0 0.00 1.04 0.00 87 1010.1
20260906043026 25 326 0.0 0.0 0.00 1.04 0.00 88 1010.1
20260906041527 25 326 3.2 8.0 0.00 1.04 0.00 88 1010.3
20260906040026 24 326 0.0 0.0 0.00 1.04 0.00 90 1010.4
20260906034516 24 326 0.0 0.0 0.00 1.04 1.04 92 1010.5
20260906033017 25 326 0.0 0.0 0.00 1.04 1.04 92 1010.5
20260906031531 25 326 0.0 0.0 0.00 1.04 1.04 93 1010.4
20260906030016 25 326 0.0 0.0 0.00 1.04 1.04 93 1010.4
20260906024514 25 326 0.0 0.0 0.00 1.04 1.04 93 1010.1
20260906023014 25 326 0.0 0.0 0.00 1.04 1.04 93 1010.2
20260906021515 25 326 0.0 0.0 0.00 1.04 1.04 92 1009.9
20260906020013 25 326 0.0 0.0 0.00 1.04 1.04 92 1009.9
20260906014519 25 326 0.0 0.0 0.00 1.04 1.04 93 1009.8
20260906013012 25 326 0.0 0.0 0.00 1.04 1.04 93 1009.9
20260906011512 25 326 0.0 0.0 0.00 1.04 1.04 92 1009.5
20260906010012 25 326 0.0 0.0 0.00 1.04 1.04 92 1009.5
20260906004511 25 326 0.0 0.0 0.00 1.04 1.04 91 1009.4
20260906003010 25 326 0.0 0.0 0.00 1.04 1.04 90 1009.2
20260906001509 25 326 0.0 0.0 0.00 1.04 1.04 90 1009.2
20260906000009 25 326 0.0 0.0 0.00 1.04 1.04 88 1009.0
20260905234508 26 326 0.0 0.0 0.00 1.04 1.04 87 1008.8
20260905233008 26 326 0.0 0.0 0.00 1.04 1.04 86 1008.7
20260905231508 26 326 0.0 0.0 0.00 1.04 1.04 86 1008.7
20260905230007 27 326 0.0 0.0 0.00 1.04 1.04 83 1008.9
20260905224506 27 326 0.0 0.0 0.00 1.04 1.04 81 1008.5
20260905223006 27 326 0.0 0.0 0.00 1.04 1.04 81 1008.3
20260905221506 26 326 0.0 0.0 0.00 1.04 1.04 82 1008.4
20260905220004 26 326 0.0 0.0 0.00 1.04 1.04 84 1008.4
20260905214503 26 326 0.0 0.0 0.00 1.04 1.04 87 1008.9
20260905213002 25 326 0.0 3.2 0.00 1.04 1.04 87 1009.2
20260905211503 25 326 0.0 3.2 0.00 1.04 1.04 89 1009.6
20260905210001 24 326 0.0 6.4 0.00 1.04 1.04 91 1009.5
20260905204500 24 326 0.0 0.0 0.00 1.04 1.04 92 1009.5
20260905203101 24 326 0.0 0.0 0.00 1.04 1.04 91 1009.1
20260905201600 24 326 0.0 9.7 0.00 1.04 1.04 90 1009.3
20260905200128 23 326 0.0 0.0 0.00 1.04 1.04 92 1009.7
20260905194600 23 326 0.0 1.6 0.00 1.04 1.04 91 1009.8
20260905193058 23 326 0.0 0.0 0.00 1.04 1.04 93 1009.6
20260905191557 23 326 0.0 0.0 1.04 1.04 1.04 90 1008.8
20260905190059 23 326 0.0 1.6 1.04 1.04 1.04 91 1008.7
20260905184553 23 326 1.6 14.5 1.04 1.04 1.04 88 1009.5
20260905183050 25 124 3.2 45.1 1.02 1.02 1.02 69 1009.7
20260905181548 31 301 38.6 66.0 0.00 0.00 0.00 58 1010.8
20260905180108 33 310 17.7 27.4 0.00 0.00 0.00 54 1009.2
20260905174544 33 342 0.0 0.0 0.00 0.00 0.00 55 1009.5
20260905173054 33 342 0.0 0.0 0.00 0.00 0.00 61 1009.9
20260905171551 33 342 0.0 0.0 0.00 0.00 0.00 63 1010.1
20260905170038 33 342 8.0 16.1 0.00 0.00 0.00 60 1010.4
20260905164542 33 21 3.2 11.3 0.00 0.00 0.00 63 1010.4
20260905163034 33 24 0.0 3.2 0.00 0.00 0.00 63 1010.6
20260905161530 32 23 0.0 1.6 0.00 0.00 0.00 65 1011.0
20260905160045 31 23 0.0 0.0 0.00 0.00 0.00 70 1011.0
20260905154522 30 23 0.0 3.2 0.00 0.00 0.00 74 1011.0
20260905153022 30 23 0.0 0.0 0.00 0.00 0.00 74 1011.2
20260905151516 29 23 0.0 0.0 0.00 0.00 0.00 75 1011.2
20260905150013 29 23 0.0 1.6 0.00 0.00 0.00 76 1011.3
20260905144514 28 23 0.0 0.0 0.00 0.00 0.00 78 1011.4
20260905143007 27 23 0.0 3.2 0.00 0.00 0.00 79 1011.1
20260905141510 27 23 0.0 1.6 0.00 0.00 0.00 80 1011.3
20260905140002 26 23 0.0 1.6 0.00 0.00 0.00 83 1011.4
20260905134501 26 23 0.0 0.0 0.00 0.00 0.00 84 1011.5
20260905133002 26 23 0.0 0.0 0.00 0.00 0.00 85 1011.5
20260905131600 25 23 0.0 0.0 0.00 0.00 0.00 86 1011.5
20260905130100 25 23 0.0 0.0 0.00 0.00 0.00 86 1011.6
20260905124600 25 23 0.0 0.0 0.00 0.00 0.00 87 1011.7
20260905123104 25 23 0.0 0.0 0.00 0.00 0.00 87 1011.6
20260905121600 25 23 0.0 0.0 0.00 0.00 0.00 88 1011.5
20260905120107 25 23 0.0 0.0 0.00 0.00 0.00 86 1011.6
20260905114608 25 23 0.0 0.0 0.00 0.00 0.00 89 1011.4
20260905113058 25 23 0.0 0.0 0.00 0.00 0.00 89 1011.3
20260905111641 25 23 1.6 6.4 0.00 0.00 0.00 90 1010.9
20260905110051 25 23 0.0 9.7 0.00 0.00 0.00 90 1010.8
20260905104550 24 23 0.0 4.8 0.00 0.00 0.00 91 1010.6
20260905103053 24 23 0.0 0.0 0.00 0.00 0.00 89 1010.6
20260905101549 24 23 0.0 0.0 0.00 0.00 0.00 88 1010.6
20260905100050 25 23 0.0 0.0 0.00 0.00 0.00 87 1010.5
20260905094546 25 23 0.0 0.0 0.00 0.00 0.00 86 1010.4
20260905093052 25 23 0.0 0.0 0.00 0.00 0.00 86 1010.4
20260905091542 25 23 0.0 0.0 0.00 0.00 0.00 85 1010.5
20260905090039 26 23 0.0 3.2 0.00 0.00 0.00 86 1010.4
20260905084539 26 23 0.0 0.0 0.00 0.00 0.00 84 1010.5
20260905083036 26 23 0.0 0.0 0.00 0.00 0.00 84 1010.7
20260905081535 26 23 0.0 0.0 0.00 0.00 0.00 83 1010.6
20260905080035 26 23 0.0 0.0 0.00 0.00 0.00 83 1010.8
20260905074531 26 23 0.0 0.0 0.00 0.00 0.00 83 1010.9
20260905073036 26 23 0.0 0.0 0.00 0.00 0.00 85 1010.9